Siren, WI

11:42 AM CST on February 08, 2016 (GMT -0600)
Burnett County

Weather History for KRZN - February, 2014

Change the Weather History Date:

Monday, February 3, 2014

  Actual Average Record
Temperature  
Mean Temperature -1 °F -  
Max Temperature 14 °F - - ()
Min Temperature -16 °F - - ()
Degree Days  
Heating Degree Days 66    
Moisture  
Dew Point -7 °F    
Average Humidity 74    
Maximum Humidity 84    
Minimum Humidity 58    
Precipitation  
Precipitation 0.00 in - - ()
Sea Level Pressure  
Sea Level Pressure 30.21 in    
Wind  
Wind Speed 3 mph (WSW)    
Max Wind Speed 9 mph    
Max Gust Speed -    
Visibility 10 miles    
Events      
T = Trace of Precipitation, MM = Missing Value Source: NWS Daily Summary

Daily Weather History Graph

Daily Weather History Graph

Search for Another Location

Airport or City:

Trip Planner

Search our weather history database for the weather conditions in past years. The results will help you decide how hot, cold, wet, or windy it might be!

Date:

Astronomy

Feb. 03, 2014 Rise Set
Actual Time 7:28 AM CST 5:18 PM CST
Civil Twilight 6:57 AM CST 5:50 PM CST
Nautical Twilight 6:21 AM CST 6:25 PM CST
Astronomical Twilight 5:46 AM CST 7:00 PM CST
Moon 9:15 AM CST (2/3) 10:27 PM CST (2/3)
Length of Visible Light 10h 52m
Length of Day
9h 49m
Waxing Crescent, 20% of the Moon is Illuminated
Feb 3
Waxing Crescent
Feb 6
First Quarter
Feb 14
Full
Feb 22
Last Quarter
Mar 1
New

Hourly Weather History & Observations

Time (CST) Temp. Windchill Dew Point Humidity Pressure Visibility Wind Dir Wind Speed Gust Speed Precip Events Conditions
12:15 AM -6.2 °F -17.1 °F -11.0 °F 79% 30.18 in 10.0 mi South 4.6 mph - N/A   Clear
12:35 AM -10.1 °F -19.4 °F -15.0 °F 79% 30.19 in 10.0 mi SSE 3.5 mph - N/A   Clear
12:55 AM -9.4 °F -18.6 °F -13.9 °F 81% 30.18 in 10.0 mi SSE 3.5 mph - N/A   Clear
1:15 AM -12.8 °F -22.5 °F -17.7 °F 79% 30.17 in 10.0 mi SSE 3.5 mph - N/A   Clear
1:35 AM -9.9 °F -19.2 °F -15.2 °F 78% 30.18 in 10.0 mi SE 3.5 mph - N/A   Clear
1:55 AM -10.3 °F -21.9 °F -14.4 °F 82% 30.18 in 10.0 mi South 4.6 mph - N/A   Clear
2:15 AM -11.2 °F -20.6 °F -16.1 °F 79% 30.18 in 10.0 mi SE 3.5 mph - N/A   Clear
2:35 AM -12.5 °F - -17.3 °F 79% 30.18 in 10.0 mi Calm Calm - N/A   Clear
2:55 AM -11.7 °F - -16.8 °F 78% 30.18 in 10.0 mi Calm Calm - N/A   Clear
3:15 AM -13.0 °F - -18.2 °F 77% 30.17 in 10.0 mi Calm Calm - N/A   Clear
3:35 AM -15.2 °F - -21.3 °F 74% 30.17 in 10.0 mi Calm Calm - N/A   Clear
3:55 AM -14.8 °F - -20.0 °F 77% 30.16 in 10.0 mi Calm Calm - N/A   Clear
4:15 AM -14.3 °F - -19.5 °F 77% 30.16 in 10.0 mi Calm Calm - N/A   Clear
4:35 AM -13.5 °F - -18.6 °F 78% 30.16 in 10.0 mi Calm Calm - N/A   Clear
4:55 AM -14.8 °F - -20.4 °F 76% 30.16 in 10.0 mi Calm Calm - N/A   Clear
5:15 AM -13.9 °F -23.7 °F -19.3 °F 77% 30.16 in 10.0 mi SSE 3.5 mph - N/A   Clear
5:35 AM -15.3 °F - -20.9 °F 76% 30.16 in 10.0 mi Calm Calm - N/A   Clear
5:55 AM -14.4 °F - -20.4 °F 75% 30.16 in 10.0 mi Calm Calm - N/A   Clear
6:15 AM -16.1 °F - -22.4 °F 73% 30.16 in 10.0 mi Calm Calm - N/A   Clear
6:35 AM -16.4 °F - -22.9 °F 72% 30.16 in 10.0 mi Calm Calm - N/A   Clear
6:55 AM -15.2 °F - -20.4 °F 77% 30.17 in 10.0 mi Calm Calm - N/A   Clear
7:15 AM -13.2 °F - -18.4 °F 77% 30.17 in 10.0 mi Calm Calm - N/A   Clear
7:35 AM -15.2 °F - -21.1 °F 75% 30.17 in 10.0 mi Calm Calm - N/A   Clear
7:55 AM -14.8 °F - -20.4 °F 76% - 10.0 mi Calm Calm - N/A   Clear
8:15 AM -11.6 °F - -16.1 °F 80% 30.17 in 10.0 mi Calm Calm - N/A   Clear
8:35 AM -12.3 °F - -17.9 °F 76% 30.18 in 10.0 mi Calm Calm - N/A   Clear
8:55 AM -6.0 °F - -10.8 °F 79% 30.18 in 10.0 mi Calm Calm - N/A   Clear
9:15 AM -2.6 °F - -7.6 °F 79% 30.18 in 7.0 mi Calm Calm - N/A   Clear
9:35 AM 2.5 °F -8.6 °F -1.3 °F 84% 30.19 in 10.0 mi WSW 5.8 mph - N/A   Clear
9:55 AM 6.8 °F -6.9 °F 1.6 °F 79% 30.19 in 10.0 mi WSW 9.2 mph - N/A   Clear
10:15 AM 7.5 °F -3.9 °F 1.6 °F 77% 30.19 in 10.0 mi West 6.9 mph - N/A   Clear
10:35 AM 8.4 °F -1.6 °F 1.9 °F 75% 30.20 in 10.0 mi WSW 5.8 mph - N/A   Clear
10:55 AM 8.4 °F -3.9 °F 1.4 °F 73% 30.20 in 10.0 mi NW 8.1 mph - N/A   Clear
11:15 AM 8.6 °F 0.1 °F 1.4 °F 73% 30.20 in 10.0 mi West 4.6 mph - N/A   Clear
11:35 AM 9.5 °F -0.3 °F 1.8 °F 71% 30.20 in 10.0 mi WNW 5.8 mph - N/A   Clear
11:55 AM 9.5 °F -0.3 °F 1.8 °F 71% 30.19 in 10.0 mi WNW 5.8 mph - N/A   Clear
12:15 PM 9.3 °F -0.5 °F 1.4 °F 70% 30.19 in 10.0 mi WNW 5.8 mph - N/A   Clear
12:35 PM 11.1 °F 1.7 °F 2.3 °F 68% 30.19 in 10.0 mi WSW 5.8 mph - N/A   Clear
12:55 PM 12.4 °F 3.1 °F 2.8 °F 66% 30.19 in 10.0 mi SW 5.8 mph - N/A   Clear
1:15 PM 12.7 °F 3.6 °F 3.0 °F 65% 30.18 in 10.0 mi WNW 5.8 mph - N/A   Clear
1:35 PM 12.9 °F 2.6 °F 3.0 °F 65% 30.18 in 10.0 mi West 6.9 mph - N/A   Clear
1:55 PM 13.1 °F 4.0 °F 2.7 °F 63% 30.19 in 10.0 mi West 5.8 mph - N/A   Clear
2:15 PM 13.6 °F 6.0 °F 2.8 °F 62% 30.19 in 10.0 mi West 4.6 mph - N/A   Clear
2:35 PM 13.8 °F 4.9 °F 2.7 °F 61% 30.19 in 10.0 mi WNW 5.8 mph - N/A   Clear
2:55 PM 14.0 °F 6.5 °F 2.5 °F 60% 30.20 in 10.0 mi West 4.6 mph - N/A   Clear
3:15 PM 13.8 °F 3.7 °F 2.3 °F 60% 30.20 in 10.0 mi WNW 6.9 mph - N/A   Clear
3:35 PM 14.2 °F 3.1 °F 2.3 °F 59% 30.20 in 10.0 mi West 8.1 mph - N/A   Clear
3:55 PM 13.6 °F 2.5 °F 1.9 °F 60% 30.21 in 10.0 mi West 8.1 mph - N/A   Clear
4:15 PM 13.6 °F 4.6 °F 1.4 °F 58% 30.22 in 10.0 mi West 5.8 mph - N/A   Clear
4:35 PM 11.7 °F 3.7 °F 0.7 °F 61% 30.23 in 10.0 mi WSW 4.6 mph - N/A   Clear
4:55 PM 11.3 °F 1.9 °F 0.5 °F 62% 30.23 in 10.0 mi SW 5.8 mph - N/A   Clear
5:15 PM 10.9 °F 2.9 °F 0.5 °F 63% 30.24 in 10.0 mi SW 4.6 mph - N/A   Clear
5:35 PM 10.4 °F 0.8 °F 0.5 °F 64% 30.25 in 10.0 mi WSW 5.8 mph - N/A   Clear
5:55 PM 10.4 °F 0.8 °F 0.5 °F 64% 30.25 in 10.0 mi WSW 5.8 mph - N/A   Clear
6:15 PM 9.9 °F 1.6 °F 0.5 °F 66% 30.26 in 10.0 mi WSW 4.6 mph - N/A   Clear
6:35 PM 9.0 °F 2.4 °F 0.1 °F 67% 30.26 in 10.0 mi WSW 3.5 mph - N/A   Clear
6:55 PM 8.8 °F 2.2 °F 0.5 °F 69% 30.26 in 10.0 mi WSW 3.5 mph - N/A   Clear
7:15 PM 5.7 °F - -1.1 °F 73% 30.27 in 10.0 mi Calm Calm - N/A   Clear
7:35 PM 4.1 °F -3.2 °F -2.4 °F 75% 30.27 in 10.0 mi West 3.5 mph - N/A   Clear
7:55 PM 2.1 °F - -3.3 °F 78% 30.27 in 10.0 mi Calm Calm - N/A   Clear
8:15 PM -0.6 °F - -5.4 °F 80% 30.28 in 10.0 mi Calm Calm - N/A   Clear
8:35 PM 0.3 °F - -4.0 °F 82% 30.28 in 10.0 mi Calm Calm - N/A   Clear
8:55 PM 1.0 °F - -3.8 °F 80% 30.28 in 10.0 mi Calm Calm - N/A   Clear
9:15 PM 0.1 °F - -4.7 °F 80% 30.28 in 10.0 mi Calm Calm - N/A   Clear
9:35 PM -0.8 °F - -5.4 °F 81% 30.28 in 10.0 mi Calm Calm - N/A   Clear
9:55 PM -1.5 °F - -5.3 °F 84% 30.29 in 10.0 mi Calm Calm - N/A   Clear
10:15 PM -2.2 °F - -6.3 °F 83% 30.30 in 10.0 mi Calm Calm - N/A   Clear
10:35 PM -2.4 °F - -6.9 °F 81% 30.31 in 10.0 mi Calm Calm - N/A   Clear
10:55 PM -2.2 °F - -6.5 °F 82% 30.32 in 10.0 mi Calm Calm - N/A   Clear
11:15 PM -3.6 °F - -7.8 °F 82% 30.33 in 10.0 mi Calm Calm - N/A   Clear
11:35 PM -4.5 °F - -8.3 °F 84% 30.34 in 10.0 mi Calm Calm - N/A   Clear
11:55 PM -5.3 °F - -8.9 °F 84% 30.34 in 10.0 mi Calm Calm - N/A   Clear